Wetbulb
59.29 58.17 58.13 53.77 46.51 45.86 43.28 48.17 50.53 54.04 54.60 56.84 58.31 61.73 60.87 60.64 60.60 55.26 65.61 67.37 68.46 69.37 71.35 72.36 72.82 73.78 74.00 73.85 73.73 73.70 74.01 74.39 74.36 74.11 73.98 73.76 73.57 73.32 73.11 73.11 73.15 73.40 73.39 72.56 72.61 72.62 72.35 72.19 72.10
57.66 58.27 56.89 49.82 44.05 40.71 45.43 50.00 53.62 55.92 57.61 59.38 61.75 63.56 62.57 61.37 66.21 65.74 64.91 68.09 68.84 69.20 70.56 71.66 72.67 73.20 73.56 73.48 73.36 73.56 74.26 74.46 74.15 74.02 73.93 73.65 73.39 73.12 72.94 72.74 72.72 73.14 73.34 72.44 72.23 72.27 72.19 71.71 71.51
59.28 58.14 48.87 46.03 42.76 41.59 43.90 50.80 56.17 56.98 58.82 58.16 59.65 65.61 66.13 64.53 67.51 66.50 66.94 68.77 68.46 68.21 70.15 71.71 72.06 72.61 73.36 73.31 73.22 73.49 73.85 73.60 73.58 73.68 73.93 73.76 73.52 73.27 73.02 72.42 72.48 73.08 73.21 72.33 71.84 71.78 71.60 71.01 70.21
55.53 51.56 48.74 43.32 42.42 46.94 47.90 49.80 57.14 58.71 59.52 61.08 64.81 63.65 66.67 68.97 68.06 67.75 68.88 69.47 67.67 68.05 70.20 70.51 71.05 72.17 72.95 73.36 73.30 73.35 73.04 72.66 72.72 73.06 73.54 73.53 73.54 73.36 72.69 72.22 72.47 72.69 73.01 72.40 71.68 71.12 70.75 70.02 69.71
53.72 46.93 41.93 41.47 43.28 48.23 50.05 51.75 55.97 58.56 60.01 61.40 66.13 64.01 64.35 67.41 67.32 66.41 66.33 70.13 67.37 68.39 69.32 70.44 70.37 71.69 72.66 73.24 73.23 72.93 72.35 72.10 72.34 72.71 72.72 73.04 73.14 72.90 72.10 72.25 72.53 72.16 72.01 71.91 71.45 70.68 69.85 69.41 68.85
46.49 46.01 39.04 37.38 42.55 48.77 49.18 49.80 52.48 55.99 56.42 60.98 64.59 64.01 63.19 68.53 65.79 63.90 66.62 70.02 69.94 68.71 69.06 70.18 71.31 71.68 72.07 72.50 72.25 71.84 71.58 71.62 71.93 72.12 72.36 72.67 72.52 71.98 71.91 72.34 72.35 71.92 71.31 70.43 69.86 69.15 68.81 68.43 68.36
44.29 41.97 39.21 41.08 43.20 47.98 51.41 51.36 50.79 51.86 53.06 52.79 59.95 60.36 60.39 66.06 65.81 64.76 67.33 71.13 71.09 69.71 68.67 69.59 70.33 71.20 71.03 70.66 70.68 70.61 71.00 71.04 71.15 71.34 71.60 71.64 71.08 71.09 71.63 72.02 72.08 71.85 70.97 70.18 69.62 69.10 68.80 68.63 68.42
47.01 43.71 39.41 39.41 44.03 44.75 49.85 51.00 51.75 51.32 49.68 58.58 56.62 57.85 56.25 63.36 66.96 64.82 65.88 67.36 71.62 71.01 69.16 68.80 69.13 69.53 69.31 69.78 69.91 69.95 70.21 70.45 70.54 70.96 70.80 70.27 70.41 70.65 71.14 71.31 71.34 71.49 70.88 70.13 69.90 69.50 69.16 68.89 68.43
47.54 40.29 37.62 40.42 45.22 46.47 50.73 48.65 51.08 52.81 52.05 53.44 57.25 59.62 62.26 65.93 67.37 64.50 63.41 64.90 69.56 70.83 69.94 68.99 68.89 68.90 68.79 68.76 69.98 70.18 70.63 70.18 70.16 70.32 70.03 68.57 69.69 69.91 70.48 70.27 70.07 70.68 69.94 69.85 69.93 69.50 68.90 68.49 68.68
44.97 39.31 40.79 46.79 46.56 47.01 48.28 49.78 50.04 50.08 51.65 52.62 55.01 60.43 61.60 62.72 64.20 64.58 63.45 63.88 65.84 68.88 69.32 69.72 68.81 68.66 68.59 70.35 68.81 68.77 70.03 69.53 69.47 69.53 69.04 69.31 68.65 68.74 70.06 69.82 69.14 69.66 68.65 68.61 68.07 67.80 67.55 67.60 68.26
45.69 42.33 46.36 48.41 49.64 48.34 46.95 48.11 50.56 48.36 48.80 51.66 51.95 53.87 57.83 58.40 59.18 60.00 63.11 64.53 66.08 68.86 69.96 69.99 69.39 69.33 68.75 68.86 68.67 69.02 68.83 68.86 68.68 68.65 69.04 68.86 68.76 68.56 68.14 68.27 68.61 65.09 65.50 64.04 64.09 64.89 65.79 67.03 66.88
42.97 47.92 47.83 47.63 50.13 47.94 47.04 48.34 48.72 48.80 49.51 52.84 53.17 54.43 53.65 53.82 54.02 55.83 58.07 58.84 65.38 67.11 69.44 70.62 70.40 69.93 69.61 69.64 68.95 69.06 68.78 68.45 68.30 68.50 69.21 68.30 68.00 66.65 64.61 63.01 63.72 62.17 62.26 61.46 61.53 61.55 63.48 65.47 66.74
46.79 47.79 49.40 49.45 49.18 49.10 50.53 47.73 48.54 48.33 51.07 52.57 55.03 55.93 53.93 54.00 55.07 55.39 55.86 58.05 66.17 66.15 67.92 69.91 70.42 70.23 69.61 69.55 68.99 68.89 68.94 68.81 68.46 68.72 69.32 68.61 66.56 62.13 61.01 60.71 62.02 61.43 61.66 61.62 61.49 61.50 65.32 65.66 65.24
50.15 50.13 49.99 50.05 49.36 49.26 49.07 49.18 48.17 50.73 51.38 51.64 54.24 54.69 54.66 55.34 55.10 55.21 57.64 57.72 63.43 66.21 67.22 68.26 68.83 69.13 68.30 68.01 69.28 69.15 67.73 66.92 66.39 65.62 65.67 65.64 62.76 60.89 60.17 60.51 60.48 59.71 59.37 60.86 61.70 61.06 63.81 64.53 62.69
50.60 46.14 47.80 48.69 49.19 48.41 49.56 46.27 47.77 50.49 51.66 52.06 52.19 54.45 54.88 55.42 55.73 57.02 57.44 58.42 59.63 66.34 67.80 68.09 68.43 67.93 67.30 67.33 66.14 66.17 65.56 64.53 63.39 62.71 62.99 62.67 61.80 60.72 60.10 59.21 59.06 59.70 60.26 58.83 60.52 60.79 63.35 61.77 60.75
46.57 45.11 40.17 47.30 49.03 49.63 48.83 44.10 50.28 51.40 51.72 51.51 52.56 52.77 54.77 54.90 57.85 58.43 59.17 59.33 58.99 66.31 67.41 68.13 69.00 67.21 65.42 64.56 64.53 64.25 62.78 62.22 61.56 61.02 61.09 61.59 61.37 60.85 60.45 60.11 59.30 58.71 57.24 60.37 60.83 60.99 60.40 58.92 57.76
44.44 38.32 41.83 45.03 49.84 48.91 47.55 46.30 49.53 51.49 52.62 51.31 52.81 52.72 53.42 54.36 57.40 59.68 62.95 65.39 64.98 66.49 67.25 67.03 66.88 63.98 62.59 62.13 62.34 62.66 61.87 61.40 61.58 60.84 60.25 60.06 60.34 61.27 60.01 60.39 59.42 58.83 59.06 58.23 58.81 58.84 59.75 56.46 54.75
40.11 41.06 40.96 42.72 45.72 48.04 46.27 46.52 50.29 50.92 51.10 52.24 50.81 51.76 52.93 53.42 57.79 62.02 63.12 67.34 66.33 67.67 67.68 66.28 64.08 61.66 60.64 60.32 60.68 60.70 60.76 61.26 61.68 60.35 58.77 58.47 58.63 60.13 59.28 58.26 57.21 57.75 57.32 57.44 58.22 57.20 58.86 55.78 53.52
45.50 43.41 42.21 45.51 49.74 47.19 45.82 45.66 49.74 52.13 50.89 49.37 50.60 52.01 52.43 55.97 59.93 61.28 62.47 64.91 64.54 66.27 64.26 63.18 61.37 60.32 60.73 60.29 59.09 59.29 58.81 60.00 60.01 58.36 57.88 57.26 57.00 57.30 56.64 56.98 56.49 56.12 56.30 56.49 57.81 57.90 55.17 53.08 51.52
45.31 43.07 42.26 47.11 50.03 47.06 45.57 45.17 48.05 50.81 51.06 51.12 51.09 51.56 51.92 56.66 58.71 60.35 60.85 62.15 62.36 62.79 62.26 61.05 60.37 60.45 60.57 60.23 59.42 59.72 60.00 60.38 59.86 55.92 54.43 54.89 55.63 55.80 55.34 54.61 53.52 53.65 54.54 55.58 56.58 56.80 55.97 54.16 52.55
45.01 43.89 44.63 45.39 48.11 47.14 46.12 43.40 46.30 50.53 51.83 52.12 52.15 52.92 53.45 56.63 57.43 58.87 59.70 59.46 61.65 61.37 60.70 60.43 60.23 60.37 60.66 60.84 60.32 60.07 60.19 58.36 53.78 51.94 51.63 53.18 54.27 54.05 53.03 52.86 52.24 51.80 52.47 52.60 52.48 52.99 53.10 52.78 54.34
42.85 48.93 48.84 47.17 44.24 39.20 47.32 37.57 44.28 47.83 49.02 51.10 51.65 51.33 53.55 57.14 57.79 58.54 58.71 59.79 60.14 60.18 59.95 60.50 60.39 60.51 60.95 61.27 60.18 59.57 57.60 53.74 52.92 51.89 52.23 52.38 53.27 52.30 52.47 52.47 52.38 52.64 52.28 51.32 51.19 52.39 51.30 51.29 50.18
44.85 50.60 48.64 48.00 43.75 41.94 43.11 39.50 42.05 48.21 46.00 48.00 49.52 51.38 55.02 56.67 57.58 57.80 58.19 58.37 59.81 59.68 58.94 59.52 60.45 61.31 61.43 61.25 60.71 59.82 57.85 55.24 53.52 52.75 52.99 53.08 52.15 51.97 53.11 52.95 52.69 51.79 51.80 51.11 50.78 49.91 49.24 49.70 48.82
50.82 48.71 47.66 46.55 43.73 35.49 42.10 41.62 39.19 43.75 47.56 48.10 50.50 52.41 54.81 56.49 57.49 58.35 59.26 58.94 58.92 59.79 59.09 59.14 59.78 61.23 61.92 61.50 61.26 60.93 57.59 54.73 53.06 53.11 52.92 52.28 51.82 51.73 52.49 53.84 52.15 52.44 51.80 50.88 50.28 49.39 49.11 48.46 48.03
48.01 43.84 36.33 34.83 33.32 33.41 44.82 41.86 43.28 47.80 50.01 50.56 51.05 52.82 55.26 56.92 57.49 57.92 57.81 57.55 57.73 59.42 59.14 59.20 59.69 60.47 61.49 62.02 62.70 62.05 60.11 56.56 55.50 54.77 53.84 52.63 52.04 51.80 52.43 52.24 52.63 52.47 51.79 51.46 51.01 49.82 48.99 48.03 47.30
45.08 44.73 36.52 29.91 30.85 35.59 44.07 37.40 42.24 50.48 52.81 52.93 53.78 53.90 54.94 56.04 57.38 57.77 57.75 57.77 57.38 59.88 59.93 60.46 60.42 60.77 61.12 61.80 61.86 61.83 58.56 57.98 57.83 56.67 55.79 55.12 54.76 53.61 53.01 52.80 53.23 53.25 52.82 51.39 50.38 49.77 49.14 48.53 47.59
45.24 41.54 46.29 40.37 39.95 30.96 38.58 42.28 47.49 50.17 50.02 51.62 52.10 52.94 53.10 55.05 56.55 57.34 58.17 58.47 58.11 58.92 59.20 58.94 60.02 60.17 60.69 60.45 59.22 58.07 57.21 56.39 56.41 56.20 55.43 55.55 54.37 55.18 53.60 53.29 53.66 52.96 52.01 51.45 50.20 48.98 48.75 47.51 47.00
46.65 48.61 39.81 39.44 30.83 29.47 36.23 37.66 39.17 44.92 47.07 49.94 50.46 50.90 52.82 54.67 55.59 56.34 58.37 58.91 59.50 59.36 59.75 58.70 59.33 58.96 58.58 58.15 57.42 56.93 57.04 56.38 55.62 55.31 54.40 54.33 53.78 55.08 54.23 53.69 53.25 52.63 51.63 51.18 50.45 49.41 49.39 48.32 47.31
44.22 43.09 44.70 43.39 39.87 31.36 28.98 33.99 45.57 45.88 48.17 48.85 50.52 51.57 52.64 53.58 54.20 54.55 57.87 59.27 59.69 59.76 59.52 58.57 57.00 56.59 56.50 56.80 56.84 56.50 56.49 56.36 55.46 55.16 55.08 54.86 54.59 54.02 54.22 54.18 53.66 52.98 52.07 51.44 50.28 49.71 49.68 48.27 48.25
47.05 44.90 45.07 37.53 35.61 37.76 34.99 35.35 48.78 48.34 49.60 50.32 49.67 51.09 50.51 51.32 51.57 52.37 53.99 56.86 57.61 58.02 58.00 56.58 55.18 54.88 55.66 56.14 56.00 55.14 55.34 55.27 54.34 54.36 54.36 54.33 53.99 54.20 54.20 53.62 53.49 53.14 52.39 51.62 50.45 49.54 49.91 48.13 46.94
MSLP
1010.91 1010.85 1011.54 1011.57 1012.32 1011.91 1010.37 1008.02 1006.23 1005.22 1004.99 1004.88 1004.97 1005.84 1007.35 1007.88 1008.75 1010.66 1011.15 1010.70 1011.79 1012.66 1013.11 1013.32 1013.57 1013.72 1013.96 1014.40 1014.93 1015.38 1015.79 1016.26 1016.72 1017.11 1017.28 1017.47 1017.79 1017.97 1018.12 1018.28 1018.45 1018.56 1018.56 1018.58 1018.62 1018.53 1018.54 1018.63 1018.61
1010.95 1010.80 1011.52 1011.45 1011.99 1011.28 1009.10 1007.28 1006.27 1005.44 1004.95 1004.84 1005.47 1006.15 1006.99 1008.63 1008.82 1010.06 1011.11 1011.59 1011.64 1012.45 1012.92 1013.22 1013.54 1013.78 1014.21 1014.55 1015.00 1015.49 1015.91 1016.39 1016.84 1017.17 1017.51 1017.70 1017.89 1018.12 1018.26 1018.44 1018.61 1018.69 1018.77 1018.80 1018.84 1018.87 1018.78 1018.81 1018.82
1011.16 1011.18 1011.72 1011.45 1011.25 1010.31 1008.53 1006.51 1005.73 1005.20 1004.72 1004.96 1005.49 1006.19 1007.44 1008.95 1009.36 1009.95 1010.30 1011.40 1011.75 1012.31 1012.68 1013.10 1013.68 1014.00 1014.30 1014.63 1015.07 1015.65 1016.11 1016.51 1016.91 1017.26 1017.56 1017.81 1018.01 1018.28 1018.49 1018.55 1018.68 1018.76 1018.83 1018.98 1019.02 1019.05 1019.05 1018.96 1018.96
1011.22 1011.24 1011.18 1010.91 1010.41 1008.75 1007.00 1005.92 1004.95 1004.97 1004.91 1005.02 1006.03 1007.61 1008.53 1008.94 1009.17 1009.67 1010.62 1011.31 1011.70 1012.39 1012.89 1013.45 1013.77 1014.16 1014.66 1015.04 1015.38 1015.75 1016.13 1016.50 1016.84 1017.18 1017.52 1017.84 1018.04 1018.39 1018.60 1018.84 1018.98 1019.02 1019.08 1019.14 1019.29 1019.33 1019.33 1019.24 1019.08
1011.17 1011.13 1011.22 1010.49 1009.42 1008.11 1006.31 1005.49 1004.93 1005.09 1005.49 1006.02 1006.26 1008.44 1009.10 1009.54 1009.49 1009.59 1010.21 1011.10 1011.61 1012.59 1013.09 1013.66 1013.99 1014.45 1014.78 1015.11 1015.43 1015.79 1016.21 1016.58 1016.95 1017.32 1017.63 1017.92 1018.26 1018.53 1018.75 1018.86 1018.95 1019.09 1019.21 1019.34 1019.38 1019.49 1019.47 1019.37 1019.31
1010.99 1010.90 1011.13 1010.43 1009.32 1007.61 1006.49 1005.90 1005.28 1005.29 1005.68 1006.59 1007.40 1008.46 1009.78 1009.92 1010.08 1010.23 1010.43 1011.14 1011.57 1012.49 1013.18 1013.69 1014.27 1014.57 1014.87 1015.23 1015.67 1016.02 1016.31 1016.65 1017.11 1017.46 1017.79 1018.05 1018.35 1018.52 1018.65 1018.79 1018.96 1019.12 1019.25 1019.34 1019.56 1019.57 1019.49 1019.42 1019.29
1010.74 1011.23 1010.86 1010.16 1009.43 1007.92 1006.63 1005.83 1006.00 1006.12 1006.04 1006.51 1007.10 1008.72 1010.02 1010.13 1010.29 1010.39 1010.90 1011.53 1012.11 1012.52 1013.29 1013.94 1014.40 1014.75 1015.11 1015.43 1015.78 1016.02 1016.32 1016.77 1017.22 1017.61 1017.83 1018.18 1018.44 1018.62 1018.71 1018.92 1019.00 1019.18 1019.40 1019.57 1019.63 1019.59 1019.41 1019.10 1019.06
1009.91 1010.70 1010.37 1009.50 1008.88 1007.86 1006.72 1006.27 1006.24 1006.33 1006.49 1006.40 1006.87 1008.74 1010.14 1010.30 1010.40 1010.68 1011.10 1011.82 1012.47 1013.07 1013.57 1014.19 1014.65 1015.01 1015.30 1015.57 1015.77 1016.19 1016.53 1016.87 1017.23 1017.52 1017.73 1018.15 1018.36 1018.48 1018.70 1018.85 1018.98 1019.24 1019.52 1019.61 1019.82 1019.82 1019.61 1019.19 1018.90
1009.01 1010.08 1009.99 1009.52 1008.54 1007.94 1006.94 1006.91 1006.36 1006.28 1006.53 1006.73 1007.41 1008.31 1009.16 1009.80 1010.33 1010.89 1011.49 1012.12 1012.79 1013.20 1013.54 1013.97 1014.57 1015.11 1015.40 1015.71 1016.03 1016.23 1016.56 1016.94 1017.19 1017.40 1017.75 1018.03 1018.09 1018.20 1018.48 1018.60 1018.82 1019.04 1019.32 1019.56 1019.92 1020.19 1019.98 1019.76 1019.12
1009.27 1009.93 1009.44 1008.67 1008.33 1008.03 1007.14 1007.07 1006.62 1006.52 1006.72 1007.09 1007.70 1008.40 1008.75 1009.31 1010.15 1010.66 1011.20 1011.64 1012.01 1012.57 1013.02 1013.41 1014.01 1014.80 1015.29 1015.42 1015.94 1016.33 1016.64 1016.94 1017.14 1017.40 1017.68 1017.79 1017.90 1018.25 1018.39 1018.52 1018.76 1019.00 1019.26 1019.64 1020.26 1021.00 1020.72 1019.98 1019.52
1008.74 1009.13 1008.65 1008.47 1008.07 1007.84 1007.70 1007.19 1006.63 1006.66 1007.14 1007.55 1008.15 1008.46 1008.77 1009.10 1009.41 1009.91 1010.43 1010.81 1011.08 1012.05 1012.75 1013.20 1013.65 1014.17 1014.89 1015.22 1015.84 1016.16 1016.45 1016.89 1017.12 1017.21 1017.43 1017.68 1018.01 1018.27 1018.47 1018.78 1019.28 1019.57 1019.42 1020.19 1019.86 1021.41 1021.02 1020.42 1019.45
1008.36 1008.24 1008.24 1008.06 1007.98 1008.00 1007.98 1007.56 1007.21 1007.06 1007.24 1007.54 1007.72 1008.07 1008.33 1008.75 1009.28 1009.55 1009.63 1009.70 1010.90 1011.52 1012.08 1012.70 1013.20 1013.61 1014.14 1014.92 1015.49 1015.66 1016.09 1016.41 1016.73 1016.96 1017.39 1017.84 1018.05 1018.20 1018.81 1019.12 1019.09 1019.25 1019.91 1020.14 1020.91 1020.70 1020.80 1018.95 1019.34
1008.23 1008.26 1008.13 1007.74 1007.75 1007.90 1007.89 1007.79 1007.67 1007.35 1007.23 1007.48 1007.61 1008.00 1008.41 1008.76 1008.83 1009.09 1009.47 1008.98 1009.89 1010.90 1011.63 1012.29 1012.75 1013.30 1013.85 1014.68 1015.13 1015.35 1015.64 1016.13 1016.63 1017.05 1017.33 1017.62 1018.13 1018.68 1018.96 1019.30 1019.65 1019.91 1019.96 1018.93 1019.41 1019.33 1019.17 1019.44 1019.90
1008.64 1008.59 1008.57 1008.34 1008.11 1007.90 1007.85 1007.80 1007.69 1007.24 1007.06 1007.71 1007.70 1008.08 1008.37 1008.62 1008.91 1009.40 1009.63 1009.75 1010.19 1010.44 1011.48 1011.99 1012.52 1012.99 1013.51 1014.50 1014.79 1015.39 1015.79 1016.39 1016.72 1017.15 1017.44 1017.91 1018.41 1018.91 1019.26 1019.38 1019.63 1019.55 1019.67 1019.36 1018.97 1019.40 1019.61 1019.95 1019.85
1008.79 1009.26 1009.09 1008.59 1008.25 1008.17 1007.72 1008.07 1007.35 1007.12 1007.25 1007.68 1007.89 1008.09 1008.25 1008.58 1009.15 1009.81 1010.06 1010.15 1010.14 1010.25 1010.87 1011.89 1012.54 1013.06 1013.76 1014.57 1015.27 1015.58 1016.20 1016.57 1017.12 1017.51 1017.75 1017.81 1018.24 1018.90 1019.56 1019.75 1019.64 1019.27 1019.30 1019.43 1019.41 1019.65 1019.76 1020.34 1020.30
1009.74 1009.86 1009.58 1008.08 1007.84 1007.77 1007.86 1007.67 1006.75 1006.11 1007.15 1007.77 1007.93 1008.29 1008.59 1008.90 1009.76 1009.88 1010.01 1010.23 1010.64 1011.07 1011.19 1011.97 1012.74 1013.25 1013.95 1014.66 1015.29 1015.89 1016.48 1016.89 1017.44 1017.77 1017.96 1018.19 1018.67 1019.16 1019.33 1019.73 1019.82 1019.65 1019.60 1019.65 1019.56 1019.89 1020.17 1020.38 1021.39
1010.26 1009.96 1009.47 1008.37 1007.08 1007.62 1007.73 1007.64 1006.94 1006.31 1006.92 1007.72 1007.83 1008.20 1009.04 1009.91 1010.16 1010.40 1010.71 1010.68 1010.67 1010.93 1011.85 1012.36 1012.88 1013.70 1014.35 1014.86 1015.40 1016.13 1016.71 1017.16 1017.50 1017.93 1018.33 1018.78 1019.05 1019.20 1019.39 1019.41 1019.48 1019.60 1019.46 1019.50 1019.35 1019.90 1020.01 1021.06 1021.77
1010.16 1009.92 1009.12 1008.32 1007.33 1006.99 1007.44 1007.33 1006.81 1006.93 1007.04 1007.42 1007.86 1008.38 1008.91 1009.56 1010.52 1010.80 1011.17 1011.25 1011.10 1011.41 1012.22 1012.97 1013.57 1014.25 1014.88 1015.42 1015.82 1016.48 1017.21 1017.62 1017.87 1018.35 1018.70 1018.89 1018.93 1019.02 1019.43 1019.85 1019.81 1019.70 1019.60 1019.68 1019.80 1020.24 1020.56 1021.29 1021.84
1009.60 1009.37 1009.05 1007.77 1007.16 1007.27 1007.52 1007.38 1006.88 1006.57 1006.78 1007.30 1007.90 1008.37 1008.98 1010.10 1010.79 1011.17 1011.75 1012.23 1012.63 1012.82 1013.19 1013.72 1014.22 1014.91 1015.16 1015.72 1016.37 1017.02 1017.64 1017.99 1018.25 1018.45 1018.68 1018.91 1019.11 1019.22 1019.31 1019.56 1019.69 1019.84 1019.90 1019.98 1020.19 1020.72 1021.26 1022.32 1022.36
1009.60 1009.09 1008.61 1007.50 1007.23 1007.46 1007.37 1007.24 1006.83 1006.77 1006.76 1006.82 1007.66 1008.25 1008.79 1010.12 1010.78 1011.61 1012.21 1012.90 1013.53 1013.94 1014.17 1014.37 1014.73 1015.16 1015.55 1015.80 1016.26 1016.67 1017.44 1017.94 1018.15 1018.71 1019.04 1019.03 1019.11 1019.22 1019.37 1019.70 1020.11 1020.10 1020.13 1020.23 1020.42 1020.74 1021.09 1021.47 1021.78
1008.90 1008.62 1008.25 1008.00 1007.47 1007.35 1007.58 1007.06 1006.90 1006.48 1006.21 1006.23 1006.78 1007.42 1008.29 1009.47 1010.78 1011.84 1012.56 1013.36 1013.78 1014.26 1014.49 1014.69 1015.00 1015.28 1015.61 1015.88 1016.20 1016.90 1017.38 1017.86 1018.62 1019.08 1019.32 1019.21 1019.28 1019.62 1019.85 1020.03 1020.19 1020.30 1020.21 1020.57 1020.72 1020.97 1021.32 1021.62 1021.67
1007.97 1007.76 1007.90 1008.21 1008.59 1008.38 1007.81 1007.21 1006.90 1006.53 1005.98 1006.20 1006.75 1007.55 1008.32 1009.54 1010.78 1011.77 1012.60 1013.38 1014.03 1014.49 1014.70 1014.87 1015.08 1015.32 1015.58 1015.72 1016.09 1016.52 1017.00 1017.95 1018.52 1018.94 1019.17 1019.31 1019.43 1019.61 1019.88 1019.98 1020.21 1020.26 1020.45 1020.67 1020.78 1020.76 1021.15 1021.47 1021.82
1007.32 1007.69 1008.40 1008.79 1009.10 1009.00 1008.75 1008.77 1006.47 1006.42 1006.26 1006.07 1006.57 1007.42 1008.45 1009.42 1010.44 1011.41 1012.38 1013.23 1013.91 1014.46 1014.75 1014.97 1015.10 1015.26 1015.46 1015.72 1016.04 1016.44 1017.14 1017.66 1018.09 1018.61 1019.00 1019.40 1019.60 1019.76 1019.95 1020.12 1020.26 1020.42 1020.43 1020.52 1020.73 1020.72 1020.86 1021.15 1021.43
1007.33 1007.97 1008.86 1009.45 1009.90 1009.67 1009.13 1009.13 1005.85 1006.04 1005.56 1005.96 1006.36 1007.10 1008.11 1009.19 1010.10 1010.93 1012.25 1013.23 1013.76 1014.25 1014.66 1014.89 1015.00 1015.13 1015.44 1015.69 1015.94 1016.31 1016.77 1017.43 1018.09 1018.64 1019.16 1019.35 1019.60 1019.77 1019.72 1019.79 1020.07 1020.21 1020.45 1020.73 1020.76 1020.91 1021.14 1021.26 1021.37
1006.82 1008.19 1009.91 1010.75 1010.77 1009.21 1008.30 1007.99 1005.44 1004.89 1004.42 1004.90 1005.75 1006.80 1007.70 1008.62 1009.68 1010.78 1011.99 1012.91 1013.42 1013.86 1014.36 1014.66 1014.88 1015.06 1015.25 1015.43 1015.57 1015.82 1016.17 1016.72 1017.41 1018.04 1018.56 1019.08 1019.45 1019.51 1019.49 1019.41 1019.79 1020.03 1020.09 1020.33 1020.63 1020.93 1021.00 1021.14 1021.28
1006.38 1007.37 1008.53 1009.80 1010.38 1008.81 1007.74 1006.05 1004.40 1003.71 1003.55 1003.95 1004.90 1006.03 1007.35 1008.45 1009.32 1010.28 1011.35 1012.18 1012.81 1013.41 1013.94 1014.26 1014.57 1014.75 1014.97 1015.07 1015.15 1015.42 1015.82 1016.38 1016.91 1017.27 1017.76 1018.10 1018.43 1018.50 1018.58 1018.91 1019.20 1019.46 1019.70 1020.07 1020.36 1020.76 1020.89 1020.79 1021.07
1006.09 1006.80 1007.71 1008.96 1009.30 1009.22 1007.50 1005.41 1004.21 1003.56 1003.45 1004.09 1005.26 1006.28 1007.23 1007.98 1008.76 1009.71 1010.76 1011.58 1012.36 1013.03 1013.55 1013.83 1014.14 1014.39 1014.62 1014.73 1014.94 1015.22 1015.48 1015.93 1016.45 1016.57 1016.96 1017.24 1017.64 1017.96 1018.34 1018.47 1018.82 1019.11 1019.46 1019.83 1020.23 1020.61 1020.68 1020.77 1020.95
1004.90 1006.54 1008.19 1008.99 1009.70 1009.29 1007.16 1006.13 1005.14 1004.59 1004.48 1004.75 1005.40 1005.98 1006.77 1007.51 1008.31 1009.16 1010.11 1011.01 1011.84 1012.65 1013.21 1013.56 1013.73 1013.80 1014.00 1014.31 1014.62 1014.91 1015.27 1015.61 1015.97 1016.21 1016.62 1016.89 1017.21 1017.37 1017.76 1018.28 1018.65 1019.01 1019.20 1019.53 1019.96 1020.36 1020.37 1020.53 1020.69
1005.11 1005.84 1006.54 1007.76 1008.17 1007.92 1007.57 1005.95 1004.32 1004.14 1004.01 1004.25 1004.67 1005.26 1005.98 1006.92 1007.82 1008.71 1009.59 1010.34 1011.08 1012.02 1012.58 1012.97 1013.27 1013.31 1013.55 1013.80 1014.29 1014.72 1015.06 1015.25 1015.67 1016.06 1016.20 1016.47 1016.82 1017.19 1017.62 1018.02 1018.41 1018.84 1019.13 1019.48 1019.71 1020.02 1020.22 1020.45 1020.55
1003.28 1003.41 1004.71 1005.95 1006.97 1007.07 1006.62 1005.04 1003.84 1003.67 1003.52 1003.64 1004.65 1005.37 1005.99 1006.67 1007.39 1008.24 1009.03 1009.77 1010.57 1011.25 1011.89 1012.28 1012.64 1012.88 1013.14 1013.46 1013.96 1014.43 1014.75 1015.05 1015.51 1015.96 1016.24 1016.58 1016.95 1017.26 1017.65 1018.04 1018.23 1018.52 1018.76 1019.01 1019.46 1019.67 1019.81 1020.05 1020.38
Wind_Speed
7 5 2 4 5 5 5 8 3 8 9 3 9 16 14 5 6 7 5 17 19 15 13 13 14 15 16 16 15 15 14 13 12 11 11 11 10 9 9 9 8 8 9 9 9 9 9 8 7
4 5 2 1 4 2 5 2 11 7 7 5 13 15 16 11 7 7 8 14 19 16 11 12 14 15 15 15 15 14 15 14 13 12 11 11 10 9 9 9 8 7 7 8 8 8 8 6 4
3 3 3 4 4 5 4 3 9 4 5 3 6 9 5 4 9 3 12 17 17 14 11 11 13 13 14 15 15 14 13 13 13 12 12 11 10 9 8 8 8 7 7 7 7 6 5 5 3
1 4 5 2 7 8 6 4 6 8 2 6 12 10 6 5 3 9 17 18 16 13 10 12 12 13 13 13 13 13 13 13 13 13 12 11 10 9 8 7 6 6 7 7 6 5 4 3 1
0 1 1 4 6 5 5 5 3 6 6 7 10 6 7 4 9 8 11 16 16 11 11 11 12 12 13 12 13 13 13 12 12 12 12 10 10 9 8 7 6 6 6 6 6 4 2 1 2
3 3 3 4 6 4 4 6 6 10 11 12 16 9 5 6 7 6 9 12 14 13 10 10 12 12 12 12 12 11 12 12 11 11 11 10 10 9 8 7 6 6 6 6 4 4 3 3 4
5 3 6 6 2 5 1 3 6 9 8 6 6 7 3 7 7 8 11 12 12 12 11 8 7 10 11 11 11 11 12 12 11 11 10 10 9 8 7 6 5 5 5 3 3 4 5 6 6
5 5 6 4 2 2 2 3 5 8 3 0 4 5 3 4 9 9 9 10 11 9 9 8 7 6 6 7 11 10 11 11 12 11 10 9 9 8 7 7 5 3 4 4 4 5 7 8 8
2 4 5 4 5 2 2 2 2 5 5 2 7 8 9 10 10 8 7 6 12 9 10 9 8 6 6 6 7 10 11 11 11 10 10 8 4 6 7 7 7 6 4 2 5 8 10 11 10
5 5 5 2 2 2 3 5 5 4 4 2 7 7 9 11 8 11 10 11 11 14 13 12 11 8 7 7 6 6 7 5 5 5 6 5 5 4 5 6 7 7 2 5 12 14 15 11 5
6 7 4 1 3 5 3 1 1 5 2 4 7 7 7 6 8 10 11 15 17 14 11 12 12 11 9 6 6 4 4 4 4 7 7 5 2 2 2 2 4 6 14 7 12 11 12 17 5
2 4 4 3 4 2 4 4 5 3 2 7 7 6 4 2 4 8 9 10 15 16 15 15 14 13 9 7 6 7 6 6 5 5 6 4 2 3 6 4 6 5 5 10 7 6 14 14 5
5 3 5 2 3 5 5 4 4 4 6 6 9 8 3 5 4 6 6 9 20 17 15 16 15 13 9 9 6 7 6 5 4 4 5 4 5 4 4 3 4 2 3 5 6 5 3 6 5
2 5 7 5 7 5 6 6 2 7 10 7 8 8 6 3 3 6 9 9 11 17 16 15 13 11 8 6 5 5 6 6 6 4 5 7 5 4 4 4 3 1 3 2 4 4 3 4 6
5 3 8 8 8 7 4 4 10 8 6 7 6 9 8 4 8 8 6 7 7 15 17 15 12 9 8 9 8 7 6 7 6 5 5 7 6 6 5 3 2 3 2 4 3 4 5 5 7
0 2 2 8 11 8 9 6 14 14 11 9 9 6 8 5 8 8 8 6 7 8 16 14 11 9 10 10 8 6 6 6 5 4 4 6 6 6 4 4 4 2 3 1 2 5 7 8 6
5 4 8 9 10 8 6 6 2 9 10 9 8 7 8 9 9 8 10 9 8 12 12 13 12 12 11 9 8 8 7 4 5 4 4 5 5 4 3 3 3 3 2 1 3 4 6 7 6
6 6 5 8 3 7 8 8 7 6 6 10 9 6 9 9 8 8 11 11 9 12 11 10 9 11 10 7 7 7 5 4 3 4 4 5 4 4 4 3 2 3 2 4 4 5 4 6 7
5 5 7 6 5 2 8 8 9 5 5 7 9 9 9 13 9 8 10 10 9 10 11 10 11 8 8 5 5 5 4 3 3 4 6 5 4 4 4 3 3 3 3 3 4 3 7 4 4
12 12 8 9 4 3 7 8 7 5 7 9 10 9 10 11 11 9 9 8 7 8 7 9 9 8 5 5 3 4 4 2 3 4 4 4 4 3 4 5 4 4 3 5 5 4 2 3 5
13 13 6 7 7 6 3 5 5 7 9 6 7 11 10 15 14 9 8 7 7 5 5 7 7 7 6 8 7 6 4 4 3 2 2 2 4 4 4 4 4 4 4 3 2 3 3 1 2
13 4 4 5 5 7 3 8 5 7 10 9 10 8 10 14 12 9 9 7 6 5 5 6 8 8 8 10 9 12 5 4 3 4 3 4 5 4 4 4 3 4 3 3 1 1 2 3 1
7 6 2 1 2 3 1 5 6 8 3 10 10 10 13 15 14 12 10 8 7 7 6 6 6 8 9 7 8 7 7 3 4 3 6 4 4 4 4 4 4 3 3 3 3 1 1 1 2
8 6 3 3 2 6 7 7 6 8 13 7 8 10 13 14 13 12 10 9 9 7 7 6 7 7 9 8 9 8 10 7 6 4 4 4 4 4 5 5 5 5 3 4 2 2 2 1 1
6 8 2 2 2 10 13 12 15 6 10 18 16 15 15 15 14 14 14 10 9 10 9 8 8 9 10 9 9 10 10 10 10 8 6 6 4 4 6 7 6 4 4 4 4 3 3 2 2
9 12 8 9 6 6 11 8 8 14 18 13 19 18 16 16 15 15 14 11 9 11 10 10 11 11 10 8 9 7 7 7 7 9 6 6 7 7 7 7 6 7 6 5 5 2 3 4 2
9 13 7 3 1 3 6 4 5 4 7 17 17 17 14 15 15 15 14 13 11 10 11 10 12 11 9 8 6 7 6 7 7 9 6 6 5 6 7 7 7 6 7 6 5 3 3 4 3
10 9 7 5 5 6 4 5 7 5 11 14 17 17 15 15 15 13 15 15 13 11 11 9 9 10 9 9 7 6 7 6 6 6 7 7 6 8 10 8 7 7 7 7 7 5 4 5 3
13 12 8 8 10 7 1 7 8 12 16 19 20 18 17 15 13 11 14 15 15 13 12 10 8 9 9 9 7 7 7 7 7 6 6 6 5 7 7 7 7 6 6 6 6 6 5 6 6
26 27 22 8 6 7 5 7 4 1 17 17 12 12 9 9 9 9 11 14 13 14 12 9 7 8 8 7 7 8 7 6 6 6 5 5 5 4 6 5 5 6 6 7 7 7 6 6 6
Wind_Direction
314 282 143 23 43 73 264 283 257 59 57 50 46 81 88 73 67 135 134 107 117 131 142 138 142 142 142 141 140 140 139 136 130 123 118 112 103 96 91 86 81 79 86 91 92 94 92 86 74
324 310 65 283 94 352 275 321 59 77 118 121 93 95 71 71 53 104 112 132 134 139 143 143 148 141 139 141 142 141 140 138 135 130 125 118 115 110 103 96 92 87 91 95 96 98 98 88 75
308 216 83 149 172 197 221 85 103 94 132 186 94 81 65 47 50 95 119 135 136 140 144 143 140 136 140 141 141 140 139 139 136 134 131 128 124 118 112 111 107 105 103 104 106 108 104 96 48
267 347 339 98 248 278 144 53 137 122 23 38 102 78 75 22 98 147 128 136 134 141 131 137 137 134 133 135 139 140 140 141 140 139 136 136 132 127 124 118 112 106 105 107 106 112 112 107 59
146 343 271 237 270 246 55 6 59 113 108 56 77 71 90 59 100 126 124 136 135 129 133 142 137 132 132 137 141 141 142 143 141 140 136 136 132 129 130 130 126 119 113 116 122 126 138 192 303
335 117 2 288 291 210 36 8 47 62 72 98 100 98 71 111 99 135 107 103 125 130 136 140 137 134 135 136 134 139 145 144 140 139 137 137 136 142 146 147 136 140 139 135 147 163 201 247 267
174 88 246 276 300 341 116 53 41 71 57 35 60 99 114 91 137 108 99 111 111 117 121 120 130 136 135 134 139 146 148 143 140 139 144 144 142 151 158 159 167 158 158 161 192 209 223 230 252
143 128 293 290 183 195 298 81 84 68 69 223 116 123 159 168 132 113 104 113 109 116 122 129 125 125 130 139 147 148 147 143 143 149 154 144 156 169 170 175 185 186 195 187 245 258 254 252 255
1 40 281 310 37 164 339 109 55 162 98 73 109 127 161 155 136 127 128 121 123 136 142 142 140 144 142 139 148 149 149 147 152 159 153 152 174 183 184 188 191 185 151 207 275 280 274 271 268
123 130 250 104 62 8 157 130 157 110 141 209 75 92 141 154 156 160 169 166 161 158 157 152 147 155 156 157 147 145 149 151 161 158 160 181 196 182 195 199 183 176 119 8 7 322 293 269 277
222 206 282 165 95 358 314 324 18 98 353 87 142 149 153 164 185 181 191 179 180 155 157 158 155 158 171 154 159 161 159 160 174 180 177 198 174 190 108 87 57 81 82 65 60 349 327 281 255
174 261 235 178 137 23 319 330 348 49 214 153 114 108 78 306 244 215 227 185 163 168 160 161 161 165 167 151 167 175 165 179 184 188 168 150 172 100 85 114 148 117 135 117 111 38 324 296 331
168 252 301 204 172 190 264 281 248 288 271 148 127 109 208 252 19 350 10 257 163 163 158 160 163 167 156 155 176 182 178 171 156 137 154 145 99 110 121 100 44 68 251 141 133 125 185 327 38
70 10 312 308 296 242 223 250 170 241 231 158 150 163 215 140 126 45 24 3 164 154 159 159 158 164 132 138 128 106 91 103 92 87 100 93 107 110 101 128 117 174 185 196 164 155 217 108 91
29 355 311 266 245 248 188 293 236 209 133 164 193 193 173 159 85 87 56 15 43 157 153 154 147 136 123 93 95 91 97 88 95 94 96 121 122 132 99 102 206 223 171 128 71 255 106 85 85
146 193 260 257 213 229 132 252 265 201 154 186 227 217 168 176 118 75 51 17 53 142 145 141 137 118 102 107 102 100 96 106 108 106 108 105 102 106 123 173 208 217 247 251 168 100 91 91 74
242 220 213 289 225 154 146 228 221 120 151 188 202 206 139 122 89 71 47 21 344 148 137 124 116 109 110 103 103 99 96 101 113 109 99 91 101 120 142 137 134 176 137 70 80 81 113 105 100
210 211 242 245 269 134 180 232 259 192 179 197 208 186 143 130 119 86 53 28 28 122 120 96 104 107 102 98 95 87 80 79 100 94 103 113 120 120 94 89 47 38 44 32 51 77 77 121 113
277 273 267 268 288 31 204 229 230 232 299 279 184 165 150 120 116 84 73 54 29 52 98 108 111 116 120 116 112 94 114 114 102 103 114 110 109 95 113 124 93 40 69 97 72 96 101 95 128
241 257 261 288 286 268 268 248 217 225 234 237 186 179 154 132 109 99 92 86 69 68 80 96 110 122 121 124 126 120 140 147 98 99 99 125 124 115 93 105 89 71 72 43 49 59 141 121 197
225 228 229 234 313 295 327 266 247 262 252 251 179 164 157 144 131 124 117 123 105 93 103 121 137 137 137 137 114 106 100 94 89 89 109 163 116 100 107 113 121 101 96 92 76 57 52 358 227
233 214 257 274 272 260 84 289 252 239 270 177 162 145 121 129 124 130 129 124 127 128 128 142 147 152 155 148 142 156 150 143 156 167 170 179 144 132 133 131 104 76 64 56 27 118 140 111 300
236 177 125 3 315 356 334 298 220 242 231 173 165 153 140 140 143 142 140 150 153 152 157 156 155 157 158 152 155 155 140 150 150 157 162 143 143 152 164 150 137 156 167 190 185 142 162 130 146
179 122 73 15 63 272 197 207 237 210 229 194 167 149 148 140 139 129 133 143 168 153 152 161 167 165 162 167 176 178 158 158 146 168 152 158 162 180 190 180 182 196 185 181 190 174 155 185 115
128 108 89 266 190 236 183 214 238 251 243 183 172 155 149 147 143 142 153 164 168 164 160 165 172 176 184 198 202 190 176 163 167 165 167 164 170 194 200 182 189 188 187 186 171 178 188 192 170
178 170 167 189 196 250 205 229 242 215 238 183 161 158 149 151 153 156 163 163 164 166 168 173 174 183 199 209 193 191 164 164 169 173 176 181 187 191 182 179 184 196 189 181 172 175 209 197 202
191 206 185 356 262 38 225 295 325 85 137 142 147 154 159 157 163 163 166 164 166 170 176 184 182 191 194 197 192 173 172 157 173 185 178 188 172 176 175 183 184 189 178 179 179 197 227 180 181
174 142 183 219 206 225 227 214 229 176 155 151 155 168 167 162 168 167 164 164 166 172 189 197 193 188 178 170 166 172 168 172 162 161 169 152 163 160 170 180 184 184 182 183 181 209 225 194 193
201 203 200 171 212 179 165 254 220 192 178 173 181 175 167 168 172 161 165 168 164 176 192 200 189 172 171 170 176 171 182 180 155 166 176 166 156 151 165 179 183 188 190 194 188 208 214 204 199
204 208 201 188 189 225 156 247 214 87 200 177 169 164 164 155 162 160 162 163 167 179 184 185 173 162 181 170 165 166 166 160 154 160 167 161 158 158 164 175 182 192 198 196 203 202 204 197 200